Location: Newark
(46.1292°N, 1.0086°W)
Time: 12:01:46
(UTC+00:00)

Vanguard 3 - Visible Passes

Search period start: 22 November 2019 00:00
Search period end: 02 December 2019 00:00
Orbit: 507 x 3263 km, 33.4° (Epoch: 21 November)

Date Brightness Start Highest point End Pass type
(mag) Time Alt. Az. Time Alt. Az. Time Alt. Az.
22 Nov 10.6 17:31:11 10° W 17:47:56 41° SSW 17:59:37 10° SE visible
22 Nov 10.8 19:50:58 10° W 19:59:25 17° SW 20:06:04 10° SSW visible
23 Nov 10.7 18:31:34 10° W 18:45:24 29° SW 18:55:25 10° SSE visible
24 Nov 10.8 17:13:36 10° W 17:30:35 40° SSW 17:43:04 10° SE visible
24 Nov 11.0 19:33:55 10° W 19:42:11 16° SW 19:48:56 10° SSW visible
25 Nov 10.9 18:14:07 10° W 18:28:04 27° SW 18:38:38 10° S visible
26 Nov 11.0 16:56:08 10° W 17:13:08 38° SSW 17:26:20 10° SSE visible
26 Nov 11.3 19:17:06 10° W 19:24:51 15° SW 19:31:27 10° SSW visible
27 Nov 11.1 17:56:48 10° W 18:10:37 26° SW 18:21:38 10° S visible
28 Nov 11.2 16:38:49 10° W 16:55:35 36° SSW 17:09:24 10° SSE visible
28 Nov 11.5 19:00:39 10° WSW 19:07:26 13° SW 19:13:28 10° SSW visible
29 Nov 11.3 17:39:38 10° W 17:53:04 24° SW 18:04:21 10° S visible
30 Nov 11.4 16:21:38 10° W 16:37:58 34° SW 16:52:15 10° SSE visible
30 Nov 11.7 18:44:57 10° WSW 18:49:57 12° SW 18:54:37 10° SW visible
01 Dec 11.6 17:22:43 10° W 17:35:29 22° SW 17:46:46 10° S visible
